Iron Mountain, MI

12:32 PM CDT on May 28, 2017 (GMT -0500)
Ford

Weather History for KIMT - October, 2012

Change the Weather History Date:

Friday, October 26, 2012

  Actual Average Record
Temperature  
Mean Temperature 37 °F -  
Max Temperature 42 °F 52 °F 76 °F (1989)
Min Temperature 33 °F 34 °F 16 °F (1962)
Degree Days  
Heating Degree Days 28    
Moisture  
Dew Point 26 °F    
Average Humidity 66    
Maximum Humidity 82    
Minimum Humidity 51    
Precipitation  
Precipitation 0.00 in - - ()
Sea Level Pressure  
Sea Level Pressure 30.20 in    
Wind  
Wind Speed 8 mph (West)    
Max Wind Speed 13 mph    
Max Gust Speed 22 mph    
Visibility 10 miles    
Events      
Averages and records for this station are not official NWS values.
T = Trace of Precipitation, MM = Missing Value Source: NWS Daily Summary

Daily Weather History Graph

Daily Weather History Graph

Search for Another Location

Airport or City:

Trip Planner

Search our weather history database for the weather conditions in past years. The results will help you decide how hot, cold, wet, or windy it might be!

Date:

Astronomy

Oct. 26, 2012 Rise Set
Actual Time 7:24 AM CDT 5:47 PM CDT
Civil Twilight 6:54 AM CDT 6:17 PM CDT
Nautical Twilight 6:19 AM CDT 6:52 PM CDT
Astronomical Twilight 5:44 AM CDT 7:27 PM CDT
Moon 4:09 PM CDT (10/26) 4:12 AM CDT (10/26)
Length of Visible Light 11h 23m
Length of Day
10h 22m
Waxing Gibbous, 91% of the Moon is Illuminated
Oct 26
Waxing Gibbous
Oct 29
Full
Nov 6
Last Quarter
Nov 13
New
Nov 20
First Quarter

Hourly Weather History & Observations

Time (CDT) Temp. Windchill Dew Point Humidity Pressure Visibility Wind Dir Wind Speed Gust Speed Precip Events Conditions
1:23 AM 37.4 °F 30.8 °F 28.4 °F 70% 29.95 in 10.0 mi WNW 9.2 mph - N/A   Mostly Cloudy
1:54 AM 35.1 °F 26.9 °F 28.0 °F 76% 29.99 in 10.0 mi West 11.5 mph 21.9 mph N/A   Clear
2:54 AM 34.0 °F 27.2 °F 28.0 °F 79% 30.02 in 10.0 mi West 8.1 mph - N/A   Partly Cloudy
3:54 AM 34.0 °F 28.8 °F 27.0 °F 75% 30.04 in 10.0 mi West 5.8 mph - N/A   Partly Cloudy
4:54 AM 34.0 °F 26.6 °F 27.0 °F 75% 30.06 in 10.0 mi West 9.2 mph - N/A   Clear
6:54 AM 33.1 °F 30.0 °F 28.0 °F 82% 30.12 in 10.0 mi WSW 3.5 mph - N/A   Scattered Clouds
7:54 AM 34.0 °F 28.8 °F 28.0 °F 79% 30.15 in 10.0 mi WSW 5.8 mph - N/A   Overcast
8:54 AM 35.1 °F 30.1 °F 28.0 °F 76% 30.18 in 10.0 mi West 5.8 mph - N/A   Overcast
9:54 AM 37.0 °F 31.0 °F 28.9 °F 73% 30.21 in 10.0 mi WSW 8.1 mph 16.1 mph N/A   Overcast
10:54 AM 39.0 °F 32.3 °F 28.0 °F 65% 30.24 in 10.0 mi West 10.4 mph - N/A   Overcast
11:54 AM 39.0 °F 31.4 °F 27.0 °F 62% 30.25 in 10.0 mi West 12.7 mph 20.7 mph N/A   Overcast
12:54 PM 39.0 °F 32.3 °F 26.1 °F 60% 30.26 in 10.0 mi West 10.4 mph - N/A   Overcast
1:54 PM 39.9 °F 33.9 °F 25.0 °F 55% 30.25 in 10.0 mi West 9.2 mph 16.1 mph N/A   Overcast
2:54 PM 41.0 °F 35.8 °F 25.0 °F 53% 30.25 in 10.0 mi West 8.1 mph 17.3 mph N/A   Overcast
3:54 PM 39.9 °F 34.5 °F 24.1 °F 53% 30.25 in 10.0 mi WNW 8.1 mph - N/A   Mostly Cloudy
4:54 PM 39.9 °F 34.5 °F 23.0 °F 51% 30.25 in 10.0 mi West 8.1 mph - N/A   Mostly Cloudy
5:54 PM 37.9 °F 32.7 °F 23.0 °F 55% 30.27 in 10.0 mi West 6.9 mph - N/A   Mostly Cloudy
6:54 PM 36.0 °F - 25.0 °F 64% 30.28 in 10.0 mi Calm Calm - N/A   Overcast
7:54 PM 36.0 °F - 27.0 °F 70% 30.31 in 10.0 mi Calm Calm - N/A   Overcast
8:54 PM 36.0 °F 33.3 °F 25.0 °F 64% 30.31 in 10.0 mi SW 3.5 mph - N/A   Overcast
9:54 PM 36.0 °F 32.1 °F 24.1 °F 62% 30.32 in 10.0 mi WSW 4.6 mph - N/A   Overcast
10:54 PM 36.0 °F 29.6 °F 23.0 °F 59% 30.30 in 10.0 mi West 8.1 mph - N/A   Overcast
11:54 PM 36.0 °F 33.3 °F 23.0 °F 59% 30.30 in 10.0 mi WNW 3.5 mph - N/A   Overcast